User: anonymous   Login
Location: Lake Superior Provincial Park
(47.3335°N, 84.6162°W)
Time: 02:07:41
(UTC-05:00)
Language:

Cosmos 2333 Rocket - Orbit

View from above orbital plane
View from above orbital plane
View from above satellite
View from above satellite

Ground track
Ground track

The orbit data is extracted from the following two-line orbital elements,

1 24298U 96051B   14354.90382277 -.00000048  00000-0  11869-6 0  6262
2 24298 070.8552 178.7333 0013467 095.0986 005.1429 14.12452220943431
Epoch (UTC): 20 December 2014 21:41:30
Eccentricity: 0.0013467
inclination: 70.8552°
perigee height: 841 km
apogee height: 861 km
right ascension of ascending node: 178.7333°
argument of perigee: 95.0986°
revolutions per day: 14.12452220
mean anomaly at epoch: 5.1429°
orbit number at epoch: 94343

The dashed part of the orbit path shows where the satellite is in the earth's shadow,  

DLR